Content
SEND FEEDBACK

Daily
Averages
Monthly
Summary
United States of America

ST. LOUIS, MISSOURI


Home > North America > United States > Missouri
Elevation: 163 meters     Latitude: 38 45N     Longitude: 090 22W

WEATHER
 
SELECT A DAY
Number of Records: 196,395;   Date Range: 1/1/95 - 7/29/14
 
SHARE

PRINT THIS DATA

[ ← Previous Day ]
WEATHER ALMANAC - 7 MAY, 2013
[ Next Day → ]
[ °F ]   °C
Weather ElementAverageHighLow
Temperature19.1 °C25 °C (4:54 pm)13.3 °C (5:54 am)
Dewpoint12.3 °C13.9 °C (10:54 am)10 °C (4:54 pm)
Humidity68 %93 % (2:54 am)39 % (4:54 pm)
Barometer1015.6 hPa1016.6 hPa (8:54 am)1014.6 hPa (4:54 pm)
Wind Speed4.5 km/h14.8 km/h (11:54 am)
Weather ElementAverage
Visibility16.1 km
Wind DirectionENE (59.1 °)

Weather ElementTotal
Precipitation---
Cooling Degree Days0.8 (Base 18.3)
Growing Degree Days9.2 (Base 10)
Averaged from 23 records on 7 May, 2013
WEATHER CONDITIONS BREAKOUT
WIND DIRECTION BREAKOUT
WEATHER BY HOUR - 7 MAY, 2013
[ °F ]   °C
Local TimeTemperatureDewpointHumidityBarometerVisibilityWind DirectionWind SpeedGust SpeedPrecipitationEventsConditions
1:54 AM14.4 °C12.8 °C90 %1014.9 hPa16.1 kmWest (260°)5.6 km/hOvercast
2:54 AM13.9 °C12.8 °C93 %1014.9 hPa16.1 kmCalmOvercast
3:54 AM13.9 °C12.2 °C89 %1014.9 hPa16.1 kmCalmOvercast
4:54 AM14 °C12 °C88 %1015.2 hPa16.1 kmCalmOvercast
5:54 AM13.3 °C12.2 °C93 %1015.6 hPa16.1 kmCalmOvercast
6:54 AM13.9 °C12.8 °C93 %1015.9 hPa16.1 kmCalmMostly Cloudy
7:54 AM16.1 °C12.8 °C81 %1016.3 hPa16.1 kmCalmMostly Cloudy
8:54 AM18.9 °C13.3 °C70 %1016.6 hPa16.1 kmEast (80°)5.6 km/hPartly Cloudy
9:54 AM21.1 °C12.2 °C57 %1016.6 hPa16.1 kmCalmClear
10:54 AM22.8 °C13.9 °C57 %1016.6 hPa16.1 kmENE (60°)9.3 km/hScattered Clouds
11:54 AM23.3 °C12.8 °C52 %1016.6 hPa16.1 kmEast (80°)14.8 km/hMostly Cloudy
12:54 PM24.4 °C12.8 °C48 %1016.3 hPa16.1 kmENE (60°)11.1 km/hMostly Cloudy
1:54 PM24.4 °C12.2 °C46 %1015.9 hPa16.1 kmNE (40°)13 km/hMostly Cloudy
2:54 PM23.9 °C11.7 °C46 %1015.6 hPa16.1 kmNNE (30°)9.3 km/hMostly Cloudy
3:54 PM24.4 °C12.2 °C46 %1014.9 hPa16.1 kmSSE (150°)5.6 km/hMostly Cloudy
4:54 PM25 °C10 °C39 %1014.6 hPa16.1 kmCalmScattered Clouds
5:54 PM23.3 °C11.1 °C46 %1014.6 hPa16.1 kmCalmScattered Clouds
6:54 PM23.9 °C10 °C41 %1014.6 hPa16.1 kmNE (40°)9.3 km/hScattered Clouds
7:54 PM21.7 °C11.7 °C53 %1014.9 hPa16.1 kmSE (140°)5.6 km/hScattered Clouds
8:54 PM18.3 °C12.8 °C70 %1015.2 hPa16.1 kmSouth (170°)7.4 km/hClear
9:54 PM15.6 °C12.8 °C83 %1015.6 hPa16.1 kmCalmClear
10:54 PM14.4 °C12.8 °C90 %1015.6 hPa16.1 kmCalmClear
11:54 PM13.3 °C12.2 °C93 %1015.6 hPa16.1 kmWSW (250°)5.6 km/hClear
Hourly data recorded from KSUS, located 0 kilometers away from St. Louis, Missouri







STORIES FROM OUR PARTNERS